This demonstration page uses our WeatherBlox Daily Observations layout. Learn more.

36.17497, -115.13722

Hourly Observations for July 31, 2015

Temp ( °F °C ) Dew Point ( °F °C ) Humidity (%) Winds ( mph kmh ) Pressure ( in mb ) Visibility ( mi km ) Precip ( " mm )
12:53 am 00:53 Clear 91 33 52 11 26 26 NNW 6 9 29.8 1009 10 16.09344 0 0
1:53 am 01:53 Clear 90 32 52 11 27 27 SSE 8 13 29.83 1010 10 16.09344 0 0
2:53 am 02:53 Clear 90 32 54 12 29 29 S 6 9 29.85 1011 10 16.09344 0 0
3:53 am 03:53 Clear 90 32 54 12 29 29 Calm 29.85 1011 10 16.09344 0 0
4:53 am 04:53 Clear 90 32 54 12 29 29 Calm 29.85 1011 10 16.09344 0 0
5:53 am 05:53 Sunny 88 31 54 12 31 31 Calm 29.88 1012 10 16.09344 0 0
6:53 am 06:53 Sunny 88 31 54 12 31 31 Calm 29.88 1012 10 16.09344 0 0
7:53 am 07:53 Sunny 91 33 54 12 28 28 NE 3 6 29.85 1011 10 16.09344 0 0
8:53 am 08:53 Sunny 91 33 54 12 28 28 SE 5 7 29.85 1011 10 16.09344 0 0
9:53 am 09:53 Sunny 95 35 54 12 25 25 SE 3 6 29.85 1011 10 16.09344 0 0
10:53 am 10:53 Sunny 97 36 54 12 23 23 N 3 6 29.85 1011 10 16.09344 0 0
11:53 am 11:53 Sunny 99 37 54 12 22 22 N 7 11 29.85 1011 10 16.09344 0 0
12:53 pm 12:53 Sunny 99 37 54 12 22 22 SE 7 11 29.8 1009 10 16.09344 0 0
1:53 pm 13:53 Sunny 100 38 54 12 21 21 SW 8 13 29.77 1008 10 16.09344 0 0
2:53 pm 14:53 Sunny 100 38 54 12 21 21 undefined N/A 29.74 1007 10 16.09344 0 0
3:41 pm 15:41 Partly Cloudy 102 39 54 12 20 20 N 23 37 29.74 1007 10 16.09344 0 0
3:53 pm 15:53 Mostly Sunny 102 39 54 12 20 20 N 18 30 29.71 1006 10 16.09344 0 0
4:53 pm 16:53 Sunny 102 39 54 12 20 20 NNW 16 26 29.71 1006 10 16.09344 0 0
5:53 pm 17:53 Sunny 102 39 54 12 20 20 N 10 17 29.68 1005 10 16.09344 0 0
6:53 pm 18:53 Partly Cloudy 100 38 52 11 20 20 WSW 5 7 29.71 1006 10 16.09344 0 0
7:53 pm 19:53 Clear 97 36 54 12 23 23 SSW 13 20 29.71 1006 10 16.09344 0 0
8:53 pm 20:53 Clear 97 36 54 12 23 23 WSW 7 11 29.77 1008 10 16.09344 0 0
9:53 pm 21:53 Clear 95 35 54 12 25 25 SE 9 15 29.8 1009 10 16.09344 0 0
10:53 pm 22:53 Clear 93 34 54 12 26 26 SE 5 7 29.77 1008 10 16.09344 0 0
11:53 pm 23:53 Clear 93 34 54 12 26 26 NW 5 7 29.77 1008 10 16.09344 0 0

Powered by AerisWeather